Location: Pitton
(51.0667°N, 1.7000°W)
Time: 06:39:55
(UTC+00:00)

Cosmos 1605 Rocket - Pass Details

Date: 17 September 2019
Orbit: 945 x 1005 km, 82.9° (Epoch: 17 October)

Event Time Altitude Azimuth Distance (km) Brightness Sun altitude
Rises 21:56:27 0° 350° (N) 3,748 8.0 -30.6°
Reaches altitude 10° 21:59:00 10° 352° (N) 2,792 7.1 -30.8°
Enters shadow 22:04:49 71° 25° (NNE) 1,058 4.1 -31.4°
